Terminal Aerodrome Forecast
Issued by NWS

Home | Current Version | Previous Version | Text Only | Print | Product List | Glossary On
Versions: 1 2 3 4 5 6 7 8 9 10 11 12 13 14 15 16 17 18
000
FTUS44 KMAF 221700
TAFPEQ
TAF
KPEQ 221722Z 2218/2318 12006KT P6SM FEW100 SCT200
      TEMPO 2219/2223 VRB15G25KT 5SM TSRA BKN070CB=

USA.gov is the U.S. government's official web portal to all federal, state and local government web resources and services.